Location: Holkham
(52.9500°N, 0.8167°E)
Time: 05:52:35
(UTC+00:00)

Cosmos 1934 Rocket - Pass Details

Date: 19 May 2025
Orbit: 938 x 997 km, 83.0° (Epoch: 18 June)

Event Time Altitude Azimuth Distance (km) Brightness Sun altitude
Rises 23:07:27 0° 347° (NNW) 3,667 8.9 -16.4°
Reaches altitude 10° 23:09:58 10° 344° (NNW) 2,724 7.7 -16.5°
Maximum altitude 23:16:06 62° 266° (W) 1,101 4.3 -16.6°
Enters shadow 23:20:04 23° 193° (SSW) 1,957 5.0 -16.7°
